Weather reports worldwide

Advertisment
Redesdale Camp, United Kingdom (3230): temperature & dewpoint: 17.03.2019 09:00:00 - 23.03.2019 09:00:00 (GMT)Redesdale Camp, United Kingdom (3230): temperature -20cm & temperature -100cm: 17.03.2019 09:00:00 - 23.03.2019 09:00:00 (GMT)Redesdale Camp, United Kingdom (3230): wind speed & gusts: 17.03.2019 09:00:00 - 23.03.2019 09:00:00 (GMT)Redesdale Camp, United Kingdom (3230): wind direction: 17.03.2019 09:00:00 - 23.03.2019 09:00:00 (GMT)Redesdale Camp, United Kingdom (3230): reduced air pressure: 17.03.2019 09:00:00 - 23.03.2019 09:00:00 (GMT)Redesdale Camp, United Kingdom (3230): visibility: 17.03.2019 09:00:00 - 23.03.2019 09:00:00 (GMT)Redesdale Camp, United Kingdom (3230): precipitation: 17.03.2019 09:00:00 - 23.03.2019 09:00:00 (GMT)
Date & Time tt [°C] td [°C] tt -20cm [°C] tt -100cm [°C] ff [km/h] ff [kn] fx [km/h] fx [kn] dd ppp [hPa] vv [km] rr [mm]
23.03.2019 09:00:00 4,8 1,3 7,0 6,0 11 6 - - WSW 1030,8 40 0,0
23.03.2019 08:00:00 2,8 0,8 - - 9 5 - - W 1030,3 35 0,0
23.03.2019 07:00:00 1,5 0,2 - - 8 4 - - WSW 1029,7 30 0,0
23.03.2019 06:00:00 1,1 -0,4 - - 8 4 - - SW 1029,0 35 0,0
23.03.2019 05:00:00 1,9 0,3 - - 4 2 - - WSW 1028,2 30 0,0
23.03.2019 04:00:00 2,3 0,5 - - 5 3 - - WSW 1027,5 28 0,0
23.03.2019 03:00:00 2,6 0,7 - - 5 3 - - WSW 1027,1 29 0,0
23.03.2019 02:00:00 2,3 1,0 - - 4 2 - - W 1026,8 28 0,0
23.03.2019 01:00:00 2,3 0,6 - - 2 1 - - N 1026,4 28 0,0
23.03.2019 00:00:00 3,3 1,2 - - 5 3 - - NNW 1025,6 30 0,0
22.03.2019 23:00:00 4,2 2,0 - - 8 4 - - NW 1025,1 30 0,0
22.03.2019 22:00:00 3,9 1,7 - - 4 2 - - WNW 1024,2 35 0,0
22.03.2019 21:00:00 5,6 3,0 - - 8 4 - - WSW 1023,3 40 0,0
22.03.2019 20:00:00 6,3 4,7 - - 8 4 - - W 1022,3 50 0,4
22.03.2019 19:00:00 6,9 5,6 - - 9 5 - - WSW 1021,3 60 0,0
22.03.2019 18:00:00 7,7 6,3 - - 9 5 - - W 1020,2 75 0,0
22.03.2019 17:00:00 8,3 7,3 - - 24 13 - - SW 1019,1 35 0,2
22.03.2019 16:00:00 8,5 7,7 - - 26 14 48 26 SW 1018,7 4,0 0,6
22.03.2019 15:00:00 8,4 7,6 - - 24 13 50 27 SW 1019,1 5 1,2
22.03.2019 14:00:00 8,6 7,8 - - 18 10 46 25 SSW 1019,3 2,6 0,0
22.03.2019 13:00:00 9,6 5,9 - - 22 12 63 34 SSW 1019,2 35 0,0
22.03.2019 12:00:00 10,8 5,3 - - 41 22 78 42 SW 1017,9 55 0,0
22.03.2019 11:00:00 10,1 4,4 - - 42 23 78 42 SW 1018,2 75 0,0
22.03.2019 10:00:00 10,3 6,4 - - 41 22 65 35 SW 1018,7 70 0,0
22.03.2019 09:00:00 9,4 6,3 7,0 5,9 31 17 55 30 SW 1020,4 75 0,0
22.03.2019 08:00:00 9,1 7,1 - - 26 14 46 25 SW 1021,3 75 0,0
22.03.2019 07:00:00 9,0 7,3 - - 18 10 - - SSW 1021,4 30 0,0
22.03.2019 06:00:00 8,9 7,3 - - 22 12 - - SSW 1021,4 35 0,0
22.03.2019 05:00:00 9,0 7,0 - - 16 9 - - S 1021,9 40 0,0
22.03.2019 04:00:00 9,2 7,0 - - 21 11 46 25 SSW 1022,8 26 0,0
22.03.2019 03:00:00 9,0 6,9 - - 15 8 - - SSW 1024,0 19 0,0
22.03.2019 02:00:00 9,1 7,2 - - 24 13 - - SW 1024,5 16 0,0
22.03.2019 01:00:00 7,6 6,0 - - 8 4 - - ESE 1025,9 30 0,0
22.03.2019 00:00:00 7,9 6,3 - - 5 3 - - SSE 1026,7 35 0,0
21.03.2019 23:00:00 8,4 6,7 - - 9 5 - - SSW 1027,4 40 0,0
21.03.2019 22:00:00 9,1 7,5 - - 13 7 - - SW 1028,5 55 0,0
21.03.2019 21:00:00 9,1 7,5 - - 13 7 - - SW 1028,6 55 0,0
21.03.2019 20:00:00 9,4 8,0 - - 11 6 - - SSW 1029,5 25 0,0
21.03.2019 19:00:00 9,9 8,2 - - 11 6 - - SW 1029,8 35 0,0
21.03.2019 18:00:00 10,3 8,1 - - 9 5 - - WSW 1029,9 75 0,0
21.03.2019 17:00:00 10,5 8,1 - - 9 5 - - SW 1030,1 75 0,0
21.03.2019 16:00:00 11,6 8,6 - - 11 6 - - WSW 1029,6 75 0,0
21.03.2019 15:00:00 11,7 8,6 - - 15 8 - - WSW 1029,5 75 0,0
21.03.2019 14:00:00 11,4 8,5 - - 21 11 - - WSW 1029,5 75 0,0
21.03.2019 13:00:00 12,0 8,6 - - 24 13 46 25 WSW 1029,7 75 0,0
21.03.2019 12:00:00 12,3 9,0 - - 26 14 46 25 WSW 1029,6 75 0,0
21.03.2019 11:00:00 12,8 9,0 - - 21 11 48 26 WSW 1029,5 75 0,0
21.03.2019 10:00:00 11,7 8,8 - - 21 11 48 26 WSW 1029,3 75 0,0
21.03.2019 09:00:00 10,8 8,4 6,5 5,7 21 11 46 25 WSW 1029,1 75 0,0
21.03.2019 08:00:00 9,3 7,8 - - 13 7 - - W 1028,7 60 0,0
21.03.2019 07:00:00 8,9 7,3 - - 18 10 - - WSW 1028,1 50 0,0
21.03.2019 06:00:00 8,9 7,5 - - 18 10 - - WSW 1027,1 45 0,0
21.03.2019 05:00:00 8,7 7,5 - - 15 8 46 25 W 1027,0 40 0,0
21.03.2019 04:00:00 8,7 7,6 - - 26 14 48 26 WSW 1026,3 35 0,0
21.03.2019 03:00:00 9,0 7,9 - - 24 13 - - WSW 1026,2 40 0,0
21.03.2019 02:00:00 9,5 8,4 - - 18 10 - - WSW 1026,4 55 0,0
21.03.2019 01:00:00 9,4 9,0 - - 16 9 - - WSW 1026,6 24 0,0
21.03.2019 00:00:00 9,2 8,9 - - 18 10 - - WSW 1026,5 8 0,0
20.03.2019 23:00:00 9,1 8,7 - - 24 13 - - SW 1026,4 19 0,2
20.03.2019 22:00:00 9,2 8,6 - - 11 6 - - WSW 1026,9 13 0,0
20.03.2019 21:00:00 9,3 8,5 - - 16 9 - - SW 1026,9 14 0,0
20.03.2019 20:00:00 9,6 8,8 - - 18 10 - - SW 1026,8 9 0,0
20.03.2019 19:00:00 9,7 9,0 - - 21 11 - - SW 1026,9 4,4 0,0
20.03.2019 18:00:00 9,5 8,9 - - 28 15 - - SW 1026,0 3,4 0,0
20.03.2019 17:00:00 9,7 8,7 - - 16 9 - - SW 1026,2 25 0,0
20.03.2019 16:00:00 9,6 8,6 - - 15 8 - - SW 1026,6 20 0,0
20.03.2019 15:00:00 9,5 8,5 - - 24 13 - - SW 1026,9 8 0,0
20.03.2019 14:00:00 10,0 8,8 - - 13 7 - - SW 1027,4 9 0,0
20.03.2019 13:00:00 10,1 8,6 - - 16 9 - - SSW 1027,3 7 0,0
20.03.2019 12:00:00 10,9 9,0 - - 21 11 - - SW 1026,8 55 0,0
20.03.2019 11:00:00 11,1 8,9 - - 9 5 - - WSW 1026,9 75 0,0
20.03.2019 10:00:00 9,1 8,3 - - 11 6 - - WSW 1027,5 9 0,0
20.03.2019 09:00:00 9,1 8,2 5,9 5,7 8 4 - - W 1027,3 30 0,0
20.03.2019 08:00:00 8,9 8,0 - - 8 4 - - W 1027,0 23 0,0
20.03.2019 07:00:00 8,8 7,8 - - 8 4 - - WNW 1026,7 24 0,0
20.03.2019 06:00:00 8,8 7,5 - - 13 7 - - SW 1026,4 40 0,0
20.03.2019 05:00:00 8,5 7,4 - - 21 11 - - WSW 1025,6 29 0,0
20.03.2019 04:00:00 8,4 7,7 - - 16 9 - - WSW 1025,7 15 0,0
20.03.2019 03:00:00 8,4 7,4 - - 11 6 - - WSW 1025,3 29 0,0
20.03.2019 02:00:00 8,7 7,4 - - 9 5 - - WSW 1025,6 55 0,0
20.03.2019 01:00:00 8,8 7,5 - - 11 6 - - WSW 1025,5 55 0,0
20.03.2019 00:00:00 9,0 7,3 - - 5 3 - - W 1025,4 75 0,0
19.03.2019 23:00:00 9,1 7,6 - - 9 5 - - WSW 1024,5 70 0,0
19.03.2019 22:00:00 9,0 7,8 - - 13 7 - - WSW 1024,3 40 0,0
19.03.2019 21:00:00 8,6 7,8 - - 8 4 - - WSW 1023,9 11 0,0
19.03.2019 20:00:00 8,3 7,5 - - 11 6 - - WSW 1023,6 27 0,0
19.03.2019 19:00:00 8,0 7,1 - - 8 4 - - SW 1023,3 30 0,0
19.03.2019 18:00:00 8,1 6,5 - - 16 9 - - WSW 1022,7 75 0,0
19.03.2019 17:00:00 8,7 6,5 - - 16 9 - - WSW 1022,3 75 0,0
19.03.2019 16:00:00 9,1 6,9 - - 13 7 - - WSW 1021,9 29 0,0
19.03.2019 15:00:00 10,0 6,9 - - 18 10 52 28 WSW 1021,2 75 0,0
19.03.2019 14:00:00 9,1 5,9 - - 28 15 55 30 WSW 1021,2 75 0,0
19.03.2019 13:00:00 9,2 5,2 - - 26 14 55 30 WSW 1021,2 70 0,0
19.03.2019 12:00:00 8,9 5,1 - - 24 13 - - SW 1021,8 60 0,0
19.03.2019 11:00:00 8,0 5,9 - - 9 5 - - WSW 1022,6 60 0,0
19.03.2019 10:00:00 8,2 7,2 - - 15 8 - - SW 1022,2 28 0,0
19.03.2019 09:00:00 7,8 7,4 5,4 5,7 9 5 - - SW 1022,2 4,1 0,0
19.03.2019 08:00:00 6,1 5,9 - - 5 3 - - SSE 1022,5 5 0,0
19.03.2019 07:00:00 4,7 4,4 - - 2 1 - - NW 1022,4 10 0,0
19.03.2019 06:00:00 4,1 3,8 - - 4 2 - - N 1022,4 55 0,0
19.03.2019 05:00:00 2,9 2,4 - - 5 3 - - SSE 1022,3 35 0,0
19.03.2019 04:00:00 3,4 2,8 - - 4 2 - - SSE 1022,6 60 0,0
19.03.2019 03:00:00 3,2 2,9 - - 4 2 - - N 1022,6 50 0,0
19.03.2019 02:00:00 4,7 4,1 - - 4 2 - - SSW 1022,4 75 0,0
19.03.2019 01:00:00 4,9 4,2 - - 2 1 - - NNW 1022,2 50 0,0
19.03.2019 00:00:00 4,9 4,0 - - 2 1 - - E 1022,1 65 0,0
18.03.2019 23:00:00 4,8 3,7 - - 2 1 - - E 1021,9 75 0,0
18.03.2019 22:00:00 5,0 3,5 - - 2 1 - - WSW 1021,5 75 0,0
18.03.2019 21:00:00 5,4 3,6 - - 2 1 - - W 1021,4 75 0,0
18.03.2019 20:00:00 5,6 3,1 - - 2 1 - - W 1020,9 75 0,0
18.03.2019 19:00:00 5,8 3,1 - - 4 2 - - WSW 1020,4 75 0,0
18.03.2019 18:00:00 6,3 2,8 - - 4 2 - - WSW 1019,7 75 0,0
18.03.2019 17:00:00 7,0 2,5 - - 8 4 - - WSW 1018,9 75 0,0
18.03.2019 16:00:00 7,2 2,6 - - 13 7 - - SW 1018,3 75 0,0
18.03.2019 15:00:00 7,6 2,4 - - 9 5 - - WSW 1017,8 75 0,0
18.03.2019 14:00:00 7,1 2,4 - - 16 9 - - SW 1017,7 75 0,0
18.03.2019 13:00:00 7,9 2,0 - - 16 9 - - SW 1017,5 75 0,0
18.03.2019 12:00:00 7,7 1,4 - - 11 6 - - SW 1017,3 75 0,0
18.03.2019 11:00:00 7,5 1,6 - - 11 6 - - WSW 1017,1 75 0,0
18.03.2019 10:00:00 7,0 1,9 - - 11 6 - - W 1016,6 75 0,0
18.03.2019 09:00:00 6,0 1,9 5,2 5,7 5 3 - - W 1016,3 45 0,0
18.03.2019 08:00:00 2,3 0,6 - - 5 3 - - N 1016,3 45 0,0
18.03.2019 07:00:00 -1,3 -2,4 - - 5 3 - - N 1016,4 40 0,0
18.03.2019 06:00:00 -1,1 -2,0 - - 4 2 - - S 1015,9 40 0,0
18.03.2019 05:00:00 -1,1 -2,3 - - 2 1 - - SE 1015,4 40 0,0
18.03.2019 04:00:00 -0,5 -1,9 - - 4 2 - - WSW 1014,9 45 0,0
18.03.2019 03:00:00 0,3 -2,0 - - 5 3 - - WNW 1014,4 45 0,0
18.03.2019 02:00:00 0,7 -2,3 - - 8 4 - - WNW 1013,9 60 0,0
18.03.2019 01:00:00 1,3 -2,0 - - 9 5 - - NW 1013,7 70 0,0
18.03.2019 00:00:00 1,5 -2,7 - - 9 5 - - NW 1012,7 75 0,0
17.03.2019 23:00:00 0,7 -1,9 - - 5 3 - - WNW 1012,0 70 0,0
17.03.2019 22:00:00 1,5 -2,0 - - 5 3 - - NW 1011,2 75 0,0
17.03.2019 21:00:00 2,0 -2,2 - - 4 2 - - W 1010,3 75 0,0
17.03.2019 20:00:00 4,1 -1,9 - - 15 8 - - NW 1008,4 75 0,0
17.03.2019 19:00:00 4,3 -0,5 - - 13 7 - - NNW 1007,1 75 0,0
17.03.2019 18:00:00 5,1 -1,0 - - 18 10 48 26 NNW 1005,5 75 0,0
17.03.2019 17:00:00 6,7 -0,4 - - 16 9 - - NW 1003,6 75 0,0
17.03.2019 16:00:00 7,4 1,2 - - 18 10 - - NW 1002,0 75 0,0
17.03.2019 15:00:00 5,9 2,1 - - 15 8 - - NW 1001,2 14 0,2
17.03.2019 14:00:00 7,4 0,9 - - 11 6 - - WNW 999,5 75 0,0
17.03.2019 13:00:00 8,0 2,9 - - 13 7 - - W 998,7 75 0,0
17.03.2019 12:00:00 6,4 1,3 - - 15 8 - - WSW 997,9 75 0,0
17.03.2019 11:00:00 5,8 0,8 - - 18 10 - - WSW 997,1 75 0,0
17.03.2019 10:00:00 4,4 0,2 - - 16 9 46 25 WSW 996,6 75 0,0
17.03.2019 09:00:00 3,1 -0,2 5,2 5,7 15 8 - - WSW 995,9 75 0,0

tt = temperature
td = dewpoint
tt -20cm = temperature -20cm
tt -100cm = temperature -100cm
ff = wind speed
fx = gusts
dd = wind direction
ppp = reduced air pressure
vv = visibility
rr = precipitation

Next stations